Inquirer Daily News

Weather

Get conditions and forecasts for any City, State, ZIP code or Country:  
Northeast Philadelphia, PA
on Monday, February 4, 2013

Monday
Previous Day Next Day
Daily Summary
 ActualAverage (KTTN)Record (KTTN)
Temperature
Mean Temperature °F 32°F  
Max Temperature 30°F 40°F 65°F (1991)
Min Temperature 19°F 24°F 1°F (1918)
Degree Days
Heating Degree Days 40 33  
Month to date heating degree days 132  
Since 1 July heating degree days 3078  
Cooling Degree Days 0 0  
Month to date cooling degree days 0  
Year to date cooling degree days 0  
Moisture
Dew Point 11°F   
Average Humidity 53    
Maximum Humidity 72    
Minimum Humidity 43    
Precipitation
Precipitation 0.00 in 0.07 in 1.63 in (1920)
Month to date precipitation 0.29  
Year to date precipitation 3.45  
Wind
Wind Speed 11 mph   
Max Wind Speed 18 mph   
Max Gust Speed 28 mph   
Visibility 10 miles   
Events     

Key: T is trace of precipitation, MM is missing value
Source: NWS Daily Summary
Time(EST)TemperatureDew PointHumidity Pressure Visibility Wind DirectionWind SpeedGust SpeedPrecipitationEvents Conditions
12:54 AM 26.1°F 10.9°F 53% 29.91 in 10.0 miles WNW 12.7 mph 23.0 mph 0.00 in   Mostly Cloudy
1:54 AM 25.0°F 9.0°F 51% 29.93 in 10.0 miles WNW 15.0 mph 21.9 mph N/A   Clear
2:54 AM 23.0°F 8.1°F 53% 29.94 in 10.0 miles WNW 15.0 mph 20.7 mph N/A   Clear
3:54 AM 21.9°F 9.0°F 58% 29.97 in 10.0 miles West 9.2 mph - N/A   Clear
5:54 AM 21.9°F 9.0°F 58% 30.00 in 10.0 miles WNW 9.2 mph - N/A   Clear
6:54 AM 19.9°F 9.0°F 62% 30.01 in 10.0 miles West 6.9 mph - N/A   Clear
7:54 AM 21.9°F 10.0°F 60% 30.04 in 10.0 miles West 10.4 mph - N/A   Clear
8:54 AM 24.1°F 10.9°F 57% 30.07 in 10.0 miles West 12.7 mph - N/A   Clear
9:54 AM 26.1°F 9.0°F 49% 30.06 in 10.0 miles WNW 15.0 mph 24.2 mph N/A   Clear
10:54 AM 27.0°F 9.0°F 47% 30.06 in 10.0 miles West 13.8 mph 24.2 mph N/A   Partly Cloudy
11:54 AM 28.9°F 12.0°F 49% 30.05 in 10.0 miles West 18.4 mph 27.6 mph N/A   Partly Cloudy
12:54 PM 28.0°F 10.0°F 47% 30.02 in 10.0 miles West 13.8 mph 23.0 mph N/A   Partly Cloudy
1:54 PM 30.0°F 10.0°F 43% 30.00 in 10.0 miles West 13.8 mph - N/A   Clear
2:54 PM 30.0°F 10.9°F 45% 30.00 in 10.0 miles WNW 13.8 mph 18.4 mph N/A   Partly Cloudy
3:54 PM 30.0°F 10.9°F 45% 30.00 in 10.0 miles WNW 11.5 mph - N/A   Clear
4:54 PM 28.9°F 10.9°F 47% 30.00 in 10.0 miles West 8.1 mph - N/A   Clear
5:54 PM 27.0°F 10.9°F 51% 30.00 in 10.0 miles WSW 4.6 mph - N/A   Clear
6:54 PM 25.0°F 10.9°F 55% 30.01 in 10.0 miles Calm Calm - N/A   Clear
7:54 PM 26.6°F 12.2°F 55% 30.00 in 10.0 miles Calm Calm - N/A   Clear
8:54 PM 28.0°F 14.0°F 56% 30.00 in 10.0 miles Calm Calm - N/A   Mostly Cloudy
9:54 PM 28.9°F 15.1°F 56% 30.00 in 10.0 miles SSW 3.5 mph - N/A   Overcast
10:54 PM 28.9°F 16.0°F 58% 29.99 in 10.0 miles South 4.6 mph - N/A   Overcast
11:54 PM 28.9°F 21.0°F 72% 29.97 in 10.0 miles Calm Calm - N/A   Overcast
Astronomy
Sunrise:07:05 AM (EST) Moon Rise:01:38 AM (EST)2/4
Sunset:05:23 PM (EST) Moon Set:11:44 AM (EST)2/4
Moon Phase
Feb. 04 Feb. 10 Feb. 17 Feb. 25 Mar. 04

Copyright © 2014 The Weather Underground, Inc.